,,PA_Meas_PMT16A,,PR_Meas_QMR101_102,,RH_Meas_QMH101,,SR_Meas_QMS101,,TA_Meas_QMH101,,GenWind,,GenWind,
time,status,PA,status,PR,status,RH,status,SR,status,TA,status,DirAvg,status,SpdAvg,
2015-04-27, 07:20:04,VALID,918.946,VALID,0,VALID,98.6013,VALID,83.3743,VALID,19.9758,VALID,172,VALID,0,
2015-04-27, 07:21:04,VALID,918.965,VALID,0,VALID,98.5708,VALID,87.0273,VALID,19.9938,VALID,130,VALID,0,
2015-04-27, 07:22:04,VALID,918.968,VALID,0,VALID,98.5631,VALID,91.2175,VALID,20.0343,VALID,142,VALID,0,
2015-04-27, 07:23:04,VALID,918.955,VALID,0,VALID,98.5098,VALID,96.1598,VALID,20.0328,VALID,129,VALID,0,
2015-04-27, 07:24:04,VALID,918.966,VALID,0,VALID,98.4717,VALID,101.424,VALID,20.0928,VALID,127,VALID,0.229687,
2015-04-27, 07:25:04,VALID,918.97,VALID,0,VALID,98.4488,VALID,106.152,VALID,20.1123,VALID,128,VALID,0.0078125,
2015-04-27, 07:26:04,VALID,918.984,VALID,0,VALID,98.3649,VALID,110.127,VALID,20.1318,VALID,117,VALID,0.0492188,
2015-04-27, 07:27:04,VALID,918.977,VALID,0,VALID,98.3116,VALID,113.458,VALID,20.1498,VALID,117,VALID,0,
2015-04-27, 07:28:04,VALID,918.996,VALID,0,VALID,98.2277,VALID,115.714,VALID,20.1693,VALID,128,VALID,0,
2015-04-27, 07:29:04,VALID,918.985,VALID,0,VALID,98.1439,VALID,116.896,VALID,20.2668,VALID,117,VALID,0,
2015-04-27, 07:30:04,VALID,918.996,VALID,0,VALID,98.0752,VALID,119.045,VALID,20.3269,VALID,124,VALID,0,
2015-04-27, 07:31:04,VALID,919.039,VALID,0,VALID,98.0295,VALID,116.466,VALID,20.3643,VALID,83,VALID,0,
2015-04-27, 07:32:04,VALID,919.046,VALID,0,VALID,97.9228,VALID,117.003,VALID,20.4049,VALID,95,VALID,0,
2015-04-27, 07:33:04,VALID,919.068,VALID,0,VALID,97.8694,VALID,118.078,VALID,20.4439,VALID,83,VALID,0,
2015-04-27, 07:34:04,VALID,919.079,VALID,0,VALID,97.6941,VALID,120.334,VALID,20.4033,VALID,94,VALID,0,
2015-04-27, 07:35:04,VALID,919.074,VALID,0,VALID,97.6331,VALID,126.458,VALID,20.5009,VALID,35,VALID,0,
2015-04-27, 07:36:04,VALID,919.086,VALID,0,VALID,97.5645,VALID,144.293,VALID,20.4618,VALID,42,VALID,0,
2015-04-27, 07:37:04,VALID,919.076,VALID,0,VALID,97.534,VALID,150.31,VALID,20.4829,VALID,40,VALID,0,
2015-04-27, 07:38:04,VALID,919.108,VALID,0,VALID,97.5797,VALID,136.987,VALID,20.4423,VALID,53,VALID,0,
2015-04-27, 07:39:04,VALID,919.111,VALID,0,VALID,97.6178,VALID,124.632,VALID,20.4423,VALID,68,VALID,0,
2015-04-27, 07:40:04,VALID,919.136,VALID,0,VALID,97.6788,VALID,120.871,VALID,20.4829,VALID,47,VALID,0,
2015-04-27, 07:41:04,VALID,919.119,VALID,0,VALID,97.7932,VALID,120.764,VALID,20.5009,VALID,42,VALID,0,
2015-04-27, 07:42:04,VALID,919.187,VALID,0,VALID,97.7779,VALID,121.516,VALID,20.4423,VALID,113,VALID,0,
2015-04-27, 07:43:04,VALID,919.177,VALID,0,VALID,97.7703,VALID,121.409,VALID,20.4618,VALID,114,VALID,0,
2015-04-27, 07:44:04,VALID,919.177,VALID,0,VALID,97.7169,VALID,120.656,VALID,20.5009,VALID,113,VALID,0,
2015-04-27, 07:45:04,VALID,919.201,VALID,0,VALID,97.6483,VALID,119.689,VALID,20.5009,VALID,113,VALID,0,
2015-04-27, 07:46:04,VALID,919.204,VALID,0,VALID,97.4959,VALID,118.4,VALID,20.4813,VALID,107,VALID,0,
2015-04-27, 07:47:04,VALID,919.239,VALID,0,VALID,97.3358,VALID,117.003,VALID,20.5024,VALID,98,VALID,0,
2015-04-27, 07:48:04,VALID,919.246,VALID,0,VALID,97.2672,VALID,115.822,VALID,20.5414,VALID,97,VALID,0,
2015-04-27, 07:49:04,VALID,919.257,VALID,0,VALID,97.1452,VALID,115.499,VALID,20.5219,VALID,97,VALID,0,
2015-04-27, 07:50:04,VALID,919.3,VALID,0,VALID,97.0537,VALID,115.929,VALID,20.5609,VALID,97,VALID,0,
2015-04-27, 07:51:04,VALID,919.311,VALID,0,VALID,97.0613,VALID,117.218,VALID,20.5804,VALID,92,VALID,0,
2015-04-27, 07:52:04,VALID,919.309,VALID,0,VALID,97.0003,VALID,119.26,VALID,20.6015,VALID,95,VALID,0,
2015-04-27, 07:53:04,VALID,919.313,VALID,0,VALID,97.0385,VALID,121.838,VALID,20.639,VALID,96,VALID,0,
2015-04-27, 07:54:04,VALID,919.333,VALID,0,VALID,97.1833,VALID,125.062,VALID,20.7576,VALID,94,VALID,0,
2015-04-27, 07:55:04,VALID,919.371,VALID,0,VALID,97.1757,VALID,129.037,VALID,20.7365,VALID,66,VALID,0,
2015-04-27, 07:56:04,VALID,919.359,VALID,0,VALID,97.0537,VALID,133.012,VALID,20.717,VALID,66,VALID,0,
2015-04-27, 07:57:04,VALID,919.38,VALID,0,VALID,96.9851,VALID,137.417,VALID,20.7365,VALID,47,VALID,0,
2015-04-27, 07:58:04,VALID,919.409,VALID,0,VALID,96.8326,VALID,142.574,VALID,20.717,VALID,45,VALID,0,
2015-04-27, 07:59:04,VALID,919.376,VALID,0,VALID,96.8403,VALID,148.054,VALID,20.7755,VALID,357,VALID,0,
2015-04-27, 08:00:04,VALID,919.392,VALID,0,VALID,96.7564,VALID,152.996,VALID,20.7755,VALID,20,VALID,0,
2015-04-27, 08:01:04,VALID,919.42,VALID,0,VALID,96.6039,VALID,156.757,VALID,20.756,VALID,20,VALID,0,
2015-04-27, 08:02:04,VALID,919.399,VALID,0,VALID,96.5353,VALID,159.12,VALID,20.756,VALID,21,VALID,0,
2015-04-27, 08:03:04,VALID,919.42,VALID,0,VALID,96.3829,VALID,159.765,VALID,20.756,VALID,33,VALID,0,
2015-04-27, 08:04:04,VALID,919.431,VALID,0,VALID,96.2685,VALID,158.691,VALID,20.756,VALID,33,VALID,0,
2015-04-27, 08:05:04,VALID,919.493,VALID,0,VALID,96.3295,VALID,156.649,VALID,20.795,VALID,25,VALID,0,
2015-04-27, 08:06:04,VALID,919.492,VALID,0,VALID,95.5443,VALID,154.178,VALID,20.7365,VALID,25,VALID,0,
2015-04-27, 08:07:04,VALID,919.494,VALID,0,VALID,94.9725,VALID,151.385,VALID,20.7544,VALID,25,VALID,0,
2015-04-27, 08:08:04,VALID,919.519,VALID,0,VALID,95.186,VALID,148.913,VALID,20.8535,VALID,25,VALID,0,
2015-04-27, 08:09:04,VALID,919.579,VALID,0,VALID,95.2088,VALID,147.087,VALID,20.873,VALID,25,VALID,0,
2015-04-27, 08:10:04,VALID,919.567,VALID,0,VALID,95.5062,VALID,145.798,VALID,20.912,VALID,18,VALID,0,
2015-04-27, 08:11:04,VALID,919.6,VALID,0,VALID,95.4604,VALID,145.153,VALID,20.912,VALID,22,VALID,0,
2015-04-27, 08:12:04,VALID,919.606,VALID,0,VALID,95.4452,VALID,145.368,VALID,20.9511,VALID,21,VALID,0,
2015-04-27, 08:13:04,VALID,919.611,VALID,0,VALID,95.1097,VALID,146.12,VALID,20.9901,VALID,21,VALID,0,
2015-04-27, 08:14:04,VALID,919.647,VALID,0,VALID,95.0488,VALID,147.839,VALID,21.0096,VALID,21,VALID,0,
2015-04-27, 08:15:04,VALID,919.638,VALID,0,VALID,94.6066,VALID,149.666,VALID,21.0486,VALID,21,VALID,0,
2015-04-27, 08:16:04,VALID,919.654,VALID,0,VALID,94.8124,VALID,151.17,VALID,21.0876,VALID,21,VALID,0,
2015-04-27, 08:17:04,VALID,919.648,VALID,0,VALID,94.6218,VALID,152.459,VALID,21.1071,VALID,21,VALID,0,
2015-04-27, 08:18:04,VALID,919.659,VALID,0,VALID,94.9115,VALID,152.889,VALID,21.1657,VALID,21,VALID,0,
2015-04-27, 08:19:04,VALID,919.669,VALID,0,VALID,93.8976,VALID,152.459,VALID,21.1461,VALID,21,VALID,0,
2015-04-27, 08:20:04,VALID,919.719,VALID,0,VALID,93.7451,VALID,151.599,VALID,21.2047,VALID,21,VALID,0,
2015-04-27, 08:21:04,VALID,919.734,VALID,0,VALID,93.9357,VALID,150.31,VALID,21.2242,VALID,346,VALID,0,
2015-04-27, 08:22:04,VALID,919.782,VALID,0,VALID,94.7591,VALID,149.558,VALID,21.2437,VALID,322,VALID,0,
2015-04-27, 08:23:04,VALID,919.823,VALID,0,VALID,95.2165,VALID,149.236,VALID,21.2437,VALID,313,VALID,0,
2015-04-27, 08:24:04,VALID,919.864,VALID,0,VALID,95.6281,VALID,149.343,VALID,21.1836,VALID,313,VALID,0,
2015-04-27, 08:25:04,VALID,919.888,VALID,0,VALID,96.0017,VALID,149.343,VALID,21.1657,VALID,312,VALID,0,
2015-04-27, 08:26:04,VALID,919.887,VALID,0,VALID,96.2304,VALID,150.74,VALID,21.1461,VALID,312,VALID,0,
2015-04-27, 08:27:04,VALID,919.927,VALID,0,VALID,96.1541,VALID,151.814,VALID,21.1071,VALID,313,VALID,0,
2015-04-27, 08:28:04,VALID,919.955,VALID,0,VALID,95.6967,VALID,152.996,VALID,20.9885,VALID,312,VALID,0,
2015-04-27, 08:29:04,VALID,919.92,VALID,0,VALID,95.3232,VALID,154.071,VALID,20.9495,VALID,312,VALID,0,
2015-04-27, 08:30:04,VALID,919.964,VALID,0,VALID,95.0183,VALID,155.36,VALID,20.9316,VALID,312,VALID,0,
2015-04-27, 08:31:04,VALID,919.958,VALID,0,VALID,94.5532,VALID,156.542,VALID,20.93,VALID,313,VALID,0,
2015-04-27, 08:32:04,VALID,919.984,VALID,0,VALID,94.6676,VALID,157.938,VALID,20.9495,INVALID,360,VALID,0,
2015-04-27, 08:33:04,VALID,919.98,VALID,0,VALID,94.9725,VALID,159.872,VALID,20.9885,VALID,312,VALID,0,
2015-04-27, 08:34:04,VALID,919.954,VALID,0,VALID,95.0488,VALID,161.914,VALID,21.0096,VALID,313,VALID,0,
2015-04-27, 08:35:04,VALID,919.975,VALID,0,VALID,95.3689,VALID,163.848,VALID,21.0665,VALID,312,VALID,0,
2015-04-27, 08:36:04,VALID,919.95,VALID,0,VALID,94.9954,VALID,165.567,VALID,21.0665,VALID,312,VALID,0,
2015-04-27, 08:37:04,VALID,919.936,VALID,0,VALID,94.6523,VALID,167.178,VALID,21.0454,VALID,313,VALID,0,
2015-04-27, 08:38:04,VALID,919.933,VALID,0,VALID,94.6828,VALID,168.575,VALID,21.0665,VALID,313,VALID,0,
2015-04-27, 08:39:04,VALID,919.948,VALID,0,VALID,94.5227,VALID,170.831,VALID,21.0259,VALID,313,VALID,0,
2015-04-27, 08:40:04,VALID,919.938,VALID,0,VALID,94.416,VALID,174.27,VALID,21.086,VALID,313,VALID,0,
2015-04-27, 08:41:04,VALID,919.948,VALID,0,VALID,94.66,VALID,178.675,VALID,21.125,VALID,313,VALID,0,
2015-04-27, 08:42:04,VALID,919.935,VALID,0,VALID,94.2864,VALID,183.509,VALID,21.1039,INVALID,360,VALID,0,
2015-04-27, 08:43:04,VALID,919.936,VALID,0,VALID,94.1949,VALID,188.882,VALID,21.1624,VALID,313,VALID,0,
2015-04-27, 08:44:04,VALID,919.93,VALID,0,VALID,94.0348,VALID,194.468,VALID,21.1445,VALID,313,VALID,0,
2015-04-27, 08:45:04,VALID,919.93,VALID,0,VALID,94.2712,VALID,199.626,VALID,21.125,VALID,312,VALID,0,
2015-04-27, 08:46:04,VALID,919.964,VALID,0,VALID,94.8353,VALID,204.353,VALID,21.164,VALID,260,VALID,0,
2015-04-27, 08:47:04,VALID,919.96,VALID,0,VALID,94.4694,VALID,208.436,VALID,21.164,VALID,258,VALID,0,
2015-04-27, 08:48:04,VALID,919.942,VALID,0,VALID,93.8061,VALID,211.767,VALID,21.1234,VALID,258,VALID,0,
2015-04-27, 08:49:04,VALID,919.932,VALID,0,VALID,93.8747,VALID,214.238,VALID,21.1624,VALID,258,VALID,0,
2015-04-27, 08:50:04,VALID,919.942,VALID,0,VALID,94.2026,VALID,215.849,VALID,21.2405,VALID,257,VALID,0,
2015-04-27, 08:51:04,VALID,919.969,VALID,0,VALID,94.7743,VALID,217.246,VALID,21.3185,VALID,258,VALID,0,
2015-04-27, 08:52:04,VALID,919.942,VALID,0,VALID,94.3245,VALID,218.643,VALID,21.299,VALID,257,VALID,0,
2015-04-27, 08:53:04,VALID,919.945,VALID,0,VALID,93.768,VALID,219.395,VALID,21.3006,VALID,258,VALID,0,
2015-04-27, 08:54:04,VALID,919.919,VALID,0,VALID,93.7223,VALID,219.18,VALID,21.338,VALID,258,VALID,0,
2015-04-27, 08:55:04,VALID,919.895,VALID,0,VALID,94.073,VALID,218.213,VALID,21.3965,VALID,257,VALID,0,
2015-04-27, 08:56:04,VALID,919.884,VALID,0,VALID,91.8545,VALID,216.816,VALID,21.416,VALID,258,VALID,0,
2015-04-27, 08:57:04,VALID,919.911,VALID,0,VALID,90.9931,VALID,216.494,VALID,21.4746,VALID,258,VALID,0,
2015-04-27, 08:58:04,VALID,919.918,VALID,0,VALID,91.5267,VALID,217.998,VALID,21.5136,VALID,272,VALID,0,
2015-04-27, 08:59:04,VALID,919.886,VALID,0,VALID,93.5088,VALID,221.759,VALID,21.6111,VALID,272,VALID,0,
2015-04-27, 09:00:04,VALID,919.907,VALID,0,VALID,93.3792,VALID,226.593,VALID,21.6891,VALID,272,VALID,0,
2015-04-27, 09:01:04,VALID,919.89,VALID,0,VALID,91.3819,VALID,232.18,VALID,21.707,VALID,336,VALID,0,
2015-04-27, 09:02:04,VALID,919.893,VALID,0,VALID,88.9424,VALID,238.949,VALID,21.7672,VALID,345,VALID,0,
2015-04-27, 09:03:04,VALID,919.881,VALID,0,VALID,89.0186,VALID,243.462,VALID,21.8257,VALID,345,VALID,0,
2015-04-27, 09:04:04,VALID,919.865,VALID,0,VALID,87.9132,VALID,251.842,VALID,21.8826,VALID,345,VALID,0,
2015-04-27, 09:05:04,VALID,919.889,VALID,0,VALID,87.4253,VALID,256.247,VALID,21.964,VALID,15,VALID,0,
2015-04-27, 09:06:04,VALID,919.868,VALID,0,VALID,87.2729,VALID,259.685,VALID,22.081,VALID,15,VALID,0,
2015-04-27, 09:07:04,VALID,919.848,VALID,0,VALID,84.6504,VALID,262.049,VALID,22.0794,VALID,15,VALID,0,
2015-04-27, 09:08:04,VALID,919.872,VALID,0,VALID,84.071,VALID,262.479,VALID,22.1005,VALID,15,VALID,0,
2015-04-27, 09:09:04,VALID,919.854,VALID,0,VALID,85.0163,VALID,264.735,VALID,22.1591,VALID,15,VALID,0,
2015-04-27, 09:10:04,VALID,919.832,VALID,0,VALID,83.4688,VALID,261.512,VALID,22.1396,VALID,15,VALID,0,
2015-04-27, 09:11:04,VALID,919.847,VALID,0,VALID,85.1612,VALID,255.925,VALID,22.1981,VALID,15,VALID,0,
2015-04-27, 09:12:04,VALID,919.813,VALID,0,VALID,86.2056,VALID,246.363,VALID,22.255,VALID,15,VALID,0,
2015-04-27, 09:13:04,VALID,919.835,VALID,0,VALID,85.8702,VALID,241.313,VALID,22.372,VALID,343,VALID,0,
2015-04-27, 09:14:04,VALID,919.849,VALID,0,VALID,84.1473,VALID,241.313,VALID,22.4306,VALID,342,VALID,0,
2015-04-27, 09:15:04,VALID,919.857,VALID,0,VALID,83.9414,VALID,240.991,VALID,22.4306,VALID,339,VALID,0,
2015-04-27, 09:16:04,VALID,919.843,VALID,0,VALID,83.85,VALID,239.057,VALID,22.3508,VALID,313,VALID,0,
2015-04-27, 09:17:04,VALID,919.853,VALID,0,VALID,84.4979,VALID,238.09,VALID,22.2354,VALID,276,VALID,0,
2015-04-27, 09:18:04,VALID,919.836,VALID,0,VALID,84.2692,VALID,235.833,VALID,22.1184,VALID,276,VALID,0,
2015-04-27, 09:19:04,VALID,919.858,VALID,0,VALID,84.9706,VALID,227.99,VALID,22.0598,VALID,276,VALID,0,
2015-04-27, 09:20:04,VALID,919.844,VALID,0,VALID,85.7863,VALID,224.874,VALID,21.9818,VALID,276,VALID,0,
2015-04-27, 09:21:04,VALID,919.878,VALID,0,VALID,86.8536,VALID,215.312,VALID,21.9623,VALID,276,VALID,0,
2015-04-27, 09:22:04,VALID,919.883,VALID,0,VALID,86.5334,VALID,213.056,VALID,21.9428,VALID,276,VALID,0,
2015-04-27, 09:23:04,VALID,919.872,VALID,0,VALID,86.5715,VALID,205.75,VALID,21.9233,VALID,276,VALID,0,
2015-04-27, 09:24:04,VALID,919.861,VALID,0,VALID,87.7531,VALID,200.915,VALID,21.9606,VALID,276,VALID,0,
2015-04-27, 09:25:04,VALID,919.852,VALID,0,VALID,87.6464,VALID,194.361,VALID,22.0208,VALID,276,VALID,0,
2015-04-27, 09:26:04,VALID,919.853,VALID,0,VALID,86.8993,VALID,197.369,VALID,22.0598,VALID,276,VALID,0,
2015-04-27, 09:27:04,VALID,919.823,VALID,0,VALID,86.5105,VALID,204.568,VALID,22.0598,VALID,276,VALID,0,
2015-04-27, 09:28:04,VALID,919.788,VALID,0,VALID,85.893,VALID,233.899,VALID,22.0403,VALID,276,VALID,0,
2015-04-27, 09:29:04,VALID,919.76,VALID,0,VALID,86.1522,VALID,241.743,VALID,22.0191,VALID,276,VALID,0,
2015-04-27, 09:30:04,VALID,919.76,VALID,0,VALID,86.846,VALID,254.421,VALID,22.0794,VALID,283,VALID,0,
2015-04-27, 09:31:04,VALID,919.754,VALID,0,VALID,86.2589,VALID,257.644,VALID,22.0972,VALID,296,VALID,0,
2015-04-27, 09:32:04,VALID,919.709,VALID,0,VALID,86.6782,VALID,277.091,VALID,22.0972,VALID,296,VALID,0,
2015-04-27, 09:33:04,VALID,919.72,VALID,0,VALID,87.0594,VALID,263.875,VALID,22.0794,VALID,303,VALID,0,
2015-04-27, 09:34:04,VALID,919.685,VALID,0,VALID,87.1661,VALID,289.876,VALID,22.0191,VALID,301,VALID,0,
2015-04-27, 09:35:04,VALID,919.679,VALID,0,VALID,84.7571,VALID,299.546,VALID,22.0208,VALID,320,VALID,0,
2015-04-27, 09:36:04,VALID,919.662,VALID,0,VALID,85.1536,VALID,298.364,VALID,22.0387,VALID,321,VALID,0,
2015-04-27, 09:37:04,VALID,919.658,VALID,0,VALID,84.437,VALID,320.39,VALID,22.0794,VALID,305,VALID,0,
2015-04-27, 09:38:04,VALID,919.628,VALID,0,VALID,84.2997,VALID,316.522,VALID,22.0387,VALID,306,VALID,0,
2015-04-27, 09:39:04,VALID,919.661,VALID,0,VALID,84.4903,VALID,367.664,VALID,22.0582,VALID,307,VALID,0,
2015-04-27, 09:40:04,VALID,919.597,VALID,0,VALID,85.3441,VALID,420.525,VALID,22.1167,VALID,299,VALID,0,
2015-04-27, 09:41:04,VALID,919.598,VALID,0,VALID,84.8639,VALID,399.789,VALID,22.1557,VALID,299,VALID,0,
2015-04-27, 09:42:04,VALID,919.611,VALID,0,VALID,85.7939,VALID,467.154,VALID,22.2338,VALID,283,VALID,0,
2015-04-27, 09:43:04,VALID,919.583,VALID,0,VALID,85.9998,VALID,516.792,VALID,22.4094,VALID,275,VALID,0,
2015-04-27, 09:44:04,VALID,919.577,VALID,0,VALID,87.0061,VALID,511.312,VALID,22.7021,VALID,316,VALID,0,
2015-04-27, 09:45:04,VALID,919.536,VALID,0,VALID,84.5056,VALID,497.775,VALID,22.9557,VALID,275,VALID,0,
2015-04-27, 09:46:04,VALID,919.562,VALID,0,VALID,82.1194,VALID,495.841,VALID,23.1314,VALID,275,VALID,0,
2015-04-27, 09:47:04,VALID,919.542,VALID,0,VALID,80.4347,VALID,517.329,VALID,23.1119,VALID,251,VALID,0,
2015-04-27, 09:48:04,VALID,919.481,VALID,0,VALID,82.836,VALID,362.506,VALID,23.0924,VALID,236,VALID,0,
2015-04-27, 09:49:04,VALID,919.484,VALID,0,VALID,84.719,VALID,578.033,VALID,23.1704,VALID,262,VALID,0,
2015-04-27, 09:50:04,VALID,919.446,VALID,0,VALID,82.8437,VALID,576.744,VALID,23.2502,VALID,216,VALID,0,
2015-04-27, 09:51:04,VALID,919.469,VALID,0,VALID,81.4943,VALID,572.232,VALID,23.4241,VALID,212,VALID,0,
2015-04-27, 09:52:04,VALID,919.44,VALID,0,VALID,78.2162,VALID,608.009,VALID,23.5412,VALID,255,VALID,0.0375,
2015-04-27, 09:53:04,VALID,919.442,VALID,0,VALID,80.549,VALID,579,VALID,23.5998,VALID,246,VALID,0.570703,
2015-04-27, 09:54:04,VALID,919.415,VALID,0,VALID,79.3674,VALID,321.249,VALID,23.6584,VALID,246,VALID,0.618359,
2015-04-27, 09:55:04,VALID,919.383,VALID,0,VALID,81.1284,VALID,362.721,VALID,23.7382,VALID,246,VALID,0.513672,
2015-04-27, 09:56:04,VALID,919.391,VALID,0,VALID,80.206,VALID,281.711,VALID,23.834,VALID,320,VALID,0.588281,
2015-04-27, 09:57:04,VALID,919.385,VALID,0,VALID,77.0651,VALID,600.489,VALID,23.9121,VALID,238,VALID,0.874609,
2015-04-27, 09:58:04,VALID,919.307,VALID,0,VALID,77.1947,VALID,591.249,VALID,23.9707,VALID,243,VALID,0.423047,
2015-04-27, 09:59:04,VALID,919.328,VALID,0,VALID,76.562,VALID,580.075,VALID,23.9335,VALID,285,VALID,1.54453,
2015-04-27, 10:00:04,VALID,919.313,VALID,0,VALID,76.1351,VALID,567.612,VALID,23.756,VALID,303,VALID,1.56328,
2015-04-27, 10:01:04,VALID,919.271,VALID,0,VALID,78.7499,VALID,543.33,VALID,23.5412,VALID,295,VALID,0.9625,
2015-04-27, 10:02:04,VALID,919.269,VALID,0,VALID,79.6723,VALID,501.428,VALID,23.5412,VALID,338,VALID,0.5125,
2015-04-27, 10:03:04,VALID,919.254,VALID,0,VALID,75.7539,VALID,531.834,VALID,23.5803,VALID,286,VALID,1.30391,
2015-04-27, 10:04:04,VALID,919.227,VALID,0,VALID,78.2239,VALID,538.495,VALID,23.5217,VALID,288,VALID,0.223828,
2015-04-27, 10:05:04,VALID,919.22,VALID,0,VALID,77.7055,VALID,439.542,VALID,23.5608,VALID,296,VALID,0,
2015-04-27, 10:06:04,VALID,919.221,VALID,0,VALID,77.4539,VALID,338.117,VALID,23.5412,VALID,328,VALID,0,
2015-04-27, 10:07:04,VALID,919.193,VALID,0,VALID,76.5848,VALID,595.976,VALID,23.5199,VALID,297,VALID,0,
2015-04-27, 10:08:04,VALID,919.224,VALID,0,VALID,76.2723,VALID,604.679,VALID,23.4614,VALID,307,VALID,0,
2015-04-27, 10:09:04,VALID,919.188,VALID,0,VALID,77.3396,VALID,609.299,VALID,23.4419,VALID,323,VALID,0,
2015-04-27, 10:10:04,VALID,919.176,VALID,0,VALID,77.0575,VALID,618.216,VALID,23.6584,VALID,294,VALID,0,
2015-04-27, 10:11:04,VALID,919.171,VALID,0,VALID,76.6916,VALID,509.486,VALID,23.7346,VALID,258,VALID,0,
2015-04-27, 10:12:04,VALID,919.163,VALID,0,VALID,75.7005,VALID,656.251,VALID,23.8127,VALID,251,VALID,0,
2015-04-27, 10:13:04,VALID,919.182,VALID,0,VALID,75.9902,VALID,650.019,VALID,23.8713,VALID,286,VALID,0,
2015-04-27, 10:14:04,VALID,919.148,VALID,0,VALID,74.5189,VALID,650.449,VALID,23.795,VALID,263,VALID,0,
2015-04-27, 10:15:04,VALID,919.148,VALID,0,VALID,75.9673,VALID,653.565,VALID,23.834,VALID,267,VALID,0,
2015-04-27, 10:16:04,VALID,919.15,VALID,0,VALID,75.3651,VALID,598.34,VALID,24.0079,VALID,284,VALID,0,
2015-04-27, 10:17:04,VALID,919.13,VALID,0,VALID,74.7171,VALID,689.987,VALID,24.1073,VALID,302,VALID,0,
2015-04-27, 10:18:04,VALID,919.13,VALID,0,VALID,74.5646,VALID,230.784,VALID,24.0097,VALID,298,VALID,0,
2015-04-27, 10:19:04,VALID,919.111,VALID,0,VALID,76.0893,VALID,692.351,VALID,23.9121,VALID,245,VALID,0,
2015-04-27, 10:20:04,VALID,919.094,VALID,0,VALID,76.5391,VALID,694.177,VALID,23.9902,VALID,255,VALID,0,
2015-04-27, 10:21:04,VALID,919.049,VALID,0,VALID,75.7005,VALID,724.261,VALID,24.125,VALID,281,VALID,0,
2015-04-27, 10:22:04,VALID,919.028,VALID,0,VALID,75.2507,VALID,729.74,VALID,24.1641,VALID,264,VALID,0,
2015-04-27, 10:23:04,VALID,919.007,VALID,0,VALID,76.0207,VALID,778.948,VALID,24.1854,VALID,258,VALID,0.0363281,
2015-04-27, 10:24:04,VALID,919.004,VALID,0,VALID,75.4032,VALID,329.522,VALID,24.125,VALID,245,VALID,0.492578,
2015-04-27, 10:25:04,VALID,918.951,VALID,0,VALID,75.2507,VALID,354.986,VALID,24.0292,VALID,246,VALID,0,
2015-04-27, 10:26:04,VALID,918.96,VALID,0,VALID,75.5176,VALID,483.27,VALID,23.9884,VALID,246,VALID,0,
2015-04-27, 10:27:04,VALID,918.938,VALID,0,VALID,74.9229,VALID,762.295,VALID,23.9884,VALID,245,VALID,0,
2015-04-27, 10:28:04,VALID,918.916,VALID,0,VALID,75.731,VALID,771.535,VALID,24.2049,VALID,245,VALID,0,
2015-04-27, 10:29:04,VALID,918.903,VALID,0,VALID,75.4489,VALID,704.707,VALID,24.4587,VALID,241,VALID,0,
2015-04-27, 10:30:04,VALID,918.889,VALID,0,VALID,73.3525,VALID,380.127,VALID,24.6716,VALID,241,VALID,0,
2015-04-27, 10:31:04,VALID,918.891,VALID,0,VALID,73.4287,VALID,531.834,VALID,24.945,VALID,268,VALID,0,
2015-04-27, 10:32:04,VALID,918.873,VALID,0,VALID,71.6677,VALID,291.488,VALID,25.1012,VALID,346,VALID,0,
2015-04-27, 10:33:04,VALID,918.897,VALID,0,VALID,72.1175,VALID,342.2,VALID,25.1383,VALID,287,VALID,0,
2015-04-27, 10:34:04,VALID,918.88,VALID,0,VALID,72.148,VALID,634.655,VALID,25.1579,VALID,228,VALID,0,
2015-04-27, 10:35:04,VALID,918.853,VALID,0,VALID,72.6664,VALID,811.825,VALID,25.3355,VALID,220,VALID,0,
2015-04-27, 10:36:04,VALID,918.849,VALID,0,VALID,72.0794,VALID,475.105,VALID,25.3746,VALID,150,VALID,0,
2015-04-27, 10:37:04,VALID,918.849,VALID,0,VALID,71.5153,VALID,796.139,VALID,25.4527,VALID,159,VALID,0,
2015-04-27, 10:38:04,VALID,918.846,VALID,0,VALID,70.7072,VALID,730.492,VALID,25.4136,VALID,159,VALID,0,
2015-04-27, 10:39:04,VALID,918.836,VALID,0,VALID,72.6435,VALID,775.833,VALID,25.3746,VALID,154,VALID,0,
2015-04-27, 10:40:04,VALID,918.829,VALID,0,VALID,72.2776,VALID,692.673,VALID,25.4312,VALID,218,VALID,0,
2015-04-27, 10:41:04,VALID,918.815,VALID,0,VALID,71.3475,VALID,848.893,VALID,25.5289,VALID,206,VALID,0,
2015-04-27, 10:42:04,VALID,918.857,VALID,0,VALID,70.9588,VALID,733.071,VALID,25.6284,VALID,206,VALID,0,
2015-04-27, 10:43:04,VALID,918.845,VALID,0,VALID,70.6843,VALID,808.602,VALID,25.7651,VALID,158,VALID,0,
2015-04-27, 10:44:04,VALID,918.856,VALID,0,VALID,71.2942,VALID,853.942,VALID,25.8628,VALID,157,VALID,0,
2015-04-27, 10:45:04,VALID,918.834,VALID,0,VALID,70.0516,VALID,808.172,VALID,26.0171,VALID,164,VALID,0,
2015-04-27, 10:46:04,VALID,918.802,VALID,0,VALID,69.8457,VALID,837.074,VALID,26.3296,VALID,167,VALID,0,
2015-04-27, 10:47:04,VALID,918.814,VALID,0,VALID,68.5803,VALID,827.404,VALID,26.5444,VALID,257,VALID,0,
2015-04-27, 10:48:04,VALID,918.797,VALID,0,VALID,68.8394,VALID,818.272,VALID,26.7202,VALID,264,VALID,0,
2015-04-27, 10:49:04,VALID,918.766,VALID,0,VALID,66.56,VALID,793.668,VALID,26.9156,VALID,152,VALID,0,
2015-04-27, 10:50:04,VALID,918.763,VALID,0,VALID,70.4556,VALID,790.552,VALID,26.7984,VALID,40,VALID,1.43203,
2015-04-27, 10:51:04,VALID,918.674,VALID,0,VALID,64.6694,VALID,796.139,VALID,26.5835,VALID,5,VALID,1.98672,
2015-04-27, 10:52:04,VALID,918.692,VALID,0,VALID,66.3542,VALID,792.486,VALID,26.2514,VALID,2,VALID,1.90625,
2015-04-27, 10:53:04,VALID,918.697,VALID,0,VALID,65.6452,VALID,798.18,VALID,26.0171,VALID,20,VALID,1.62734,
2015-04-27, 10:54:04,VALID,918.629,VALID,0,VALID,67.1928,VALID,806.883,VALID,25.7632,VALID,32,VALID,0.146094,
2015-04-27, 10:55:04,VALID,918.623,VALID,0,VALID,69.2664,VALID,804.519,VALID,25.8413,VALID,33,VALID,0,
2015-04-27, 10:56:04,VALID,918.608,VALID,0,VALID,67.3376,VALID,807.313,VALID,25.8022,VALID,43,VALID,0.700781,
2015-04-27, 10:57:04,VALID,918.588,VALID,0,VALID,67.1013,VALID,800.544,VALID,25.5269,VALID,55,VALID,0,
2015-04-27, 10:58:04,VALID,918.568,VALID,0,VALID,69.2892,VALID,796.461,VALID,25.5289,VALID,55,VALID,0,
2015-04-27, 10:59:04,VALID,918.538,VALID,0,VALID,68.6641,VALID,791.519,VALID,25.7026,VALID,335,VALID,0.363281,
2015-04-27, 11:00:04,VALID,918.537,VALID,0,VALID,70.4404,VALID,792.701,VALID,25.9956,VALID,20,VALID,0.73125,
2015-04-27, 11:01:04,VALID,918.489,VALID,0,VALID,66.4838,VALID,788.618,VALID,26.2885,VALID,335,VALID,0,
2015-04-27, 11:02:04,VALID,918.492,VALID,0,VALID,66.4076,VALID,785.717,VALID,26.5054,VALID,344,VALID,0.00234375,
2015-04-27, 11:03:04,VALID,918.461,VALID,0,VALID,65.7443,VALID,785.287,VALID,26.7202,VALID,11,VALID,0,
2015-04-27, 11:04:04,VALID,918.466,VALID,0,VALID,66.926,VALID,782.924,VALID,26.8374,VALID,262,VALID,0,
2015-04-27, 11:05:04,VALID,918.445,VALID,0,VALID,67.8865,VALID,783.246,VALID,26.8199,VALID,208,VALID,0,